Flag for U.S.A. Weather past 2 weeks in Hayward, California, U.S.A.

Now
59 °F

Scattered clouds.


Feels Like: 57 °F
Forecast: 54 / 69 °F
Wind: 10 mph from West

Location: Hayward Air Terminal

Current Time: May 28, 2015 at 2:08:22 PM

Latest Report: May 28, 2015 at 1:01 PM


Visibility: 10 mi

Pressure: 30.05 "Hg

Humidity: 77%

Dew point: 52 °F

Location of HaywardLocation

Historic Weather in Hayward — Graph

°F

Hayward temperature yesterday

Maximum temperature yesterday: 63 °F (at 12:54 PM)
Minimum temperature yesterday: 55 °F (at 5:54 AM)
Average temperature yesterday: 58 °F

Past Weeks' High & Low Weather Summary

 TemperatureHumidityPressure
High65 °F (May 14, 12:54 PM)93% (May 21, 7:54 AM)30.15 "Hg (May 21, 7:54 AM)
Low52 °F (May 15, 3:02 AM)48% (May 13, 1:54 PM)29.82 "Hg (May 14, 4:54 PM)
Average57 °F75%30.02 "Hg
* Reported May 13 1:54 PM — May 28 1:01 PM, Hayward, Weather by CustomWeather, © 2015

Note: Actual official high and low records may vary slightly from our data, if they occured in-between our weather recording intervals... More about our weather records

Advertising

Hayward weather history for previous 24 hours

 ConditionsComfort  
Time TempWeatherWind HumidityBarometerVisibility
1:01 PM
Thu, May 28
59 °FScattered clouds.10 mph77%30.05 "Hg10 mi
11:54 AM58 °FOvercast.8 mph78%30.08 "Hg10 mi
10:54 AM56 °FLow clouds.8 mph81%30.09 "Hg10 mi
9:54 AM54 °FLow clouds.5 mph86%30.08 "Hg10 mi
8:54 AM54 °FLow clouds.8 mph86%30.09 "Hg10 mi
7:54 AM53 °FLow clouds.9 mph89%30.08 "Hg10 mi
6:54 AM54 °FLow clouds.7 mph86%30.07 "Hg10 mi
5:54 AM53 °FLow clouds.7 mph89%30.06 "Hg10 mi
4:54 AM53 °FLow clouds.8 mph89%30.05 "Hg10 mi
3:54 AM53 °FLow clouds.10 mph89%30.05 "Hg10 mi
2:54 AM54 °FLow clouds.9 mph86%30.05 "Hg10 mi
1:54 AM54 °FLow clouds.8 mph86%30.05 "Hg10 mi
12:54 AM54 °FLow clouds.7 mph86%30.06 "Hg10 mi
11:54 PM
Wed, May 27
55 °FLow clouds.8 mph83%30.06 "Hg10 mi
10:54 PM55 °FLow clouds.10 mph87%30.07 "Hg10 mi
9:54 PM55 °FOvercast.7 mph83%30.07 "Hg10 mi
8:54 PM56 °FMostly cloudy.10 mph84%30.05 "Hg10 mi
7:54 PM57 °FOvercast.10 mph81%30.04 "Hg10 mi
6:54 PM57 °FOvercast.14 mph81%30.04 "Hg10 mi
5:54 PM59 °FOvercast.15 mph75%30.05 "Hg10 mi
4:54 PM60 °FScattered clouds.12 mph69%30.05 "Hg10 mi
3:54 PM62 °FSunny.18 mph67%30.05 "Hg10 mi
2:54 PM62 °FSunny.15 mph65%30.05 "Hg10 mi
Weather by CustomWeather, © 2015

See weather overviewHow to use our weather pages